When you browse on this site, cookies collect data to enhance your experience and personalize the content and advertising you see.
Visit our Privacy Policy to learn more. By continuing to use the site, you agree to this use of cookies and data.
  • In Hungary
  • List of Countries
  • For 7 days
  • Water Temperature
  • Satellite Maps
  • Weather Map
  • News
  • Weather Widgets
  • user-avatar
    Login

    Hourly Weather Stepanakert

    Today, 10 December, Monday

    Time Temperature Precipitation Wind Pressure Humidity
    00:00 +5°C° 0 mm 1 mps 694 mmHg 86%
    01:00 +5°C° 0 mm 1 mps 693 mmHg 85%
    02:00 +4°C° 0 mm 1 mps 693 mmHg 84%
    03:00 +4°C° 0 mm 1 mps 693 mmHg 83%
    04:00 +4°C° 0 mm 1 mps 693 mmHg 82%
    05:00 +4°C° 0 mm 1 mps 693 mmHg 80%
    06:00 +4°C° 0 mm 1 mps 693 mmHg 79%
    07:00 +5°C° 0 mm 1 mps 693 mmHg 76%
    08:00 +6°C° 0 mm 1 mps 693 mmHg 73%
    09:00 +7°C° 0 mm 1 mps 693 mmHg 69%
    10:00 +8°C° 0 mm 1 mps 692 mmHg 66%
    11:00 +9°C° 0 mm 1 mps 692 mmHg 63%
    12:00 +9°C° 0 mm 2 mps 692 mmHg 59%
    13:00 +10°C° 0 mm 1 mps 692 mmHg 60%
    14:00 +10°C° 0 mm 1 mps 691 mmHg 61%
    15:00 +9°C° 0 mm 1 mps 691 mmHg 63%
    16:00 +8°C° 0 mm 1 mps 691 mmHg 66%
    17:00 +8°C° 0 mm 1 mps 691 mmHg 69%
    18:00 +7°C° 0 mm 1 mps 691 mmHg 72%
    19:00 +7°C° 0 mm 1 mps 691 mmHg 71%
    20:00 +6°C° 0 mm 1 mps 692 mmHg 70%
    21:00 +6°C° 0 mm 1 mps 692 mmHg 68%
    22:00 +5°C° 0 mm 2 mps 692 mmHg 67%
    23:00 +5°C° 0 mm 2 mps 692 mmHg 66%

    Tomorrow, 11 December, Tuesday

    Time Temperature Precipitation Wind Pressure Humidity
    00:00 +5°C° 0 mm 2 mps 692 mmHg 65%
    01:00 +5°C° 0 mm 2 mps 691 mmHg 65%
    02:00 +5°C° 0 mm 2 mps 691 mmHg 64%
    03:00 +5°C° 0 mm 2 mps 691 mmHg 63%
    04:00 +5°C° 0 mm 2 mps 691 mmHg 62%
    05:00 +5°C° 0 mm 2 mps 691 mmHg 61%
    06:00 +5°C° 0 mm 2 mps 691 mmHg 60%
    07:00 +6°C° 0 mm 2 mps 692 mmHg 56%
    08:00 +7°C° 0 mm 2 mps 692 mmHg 52%
    09:00 +10°C° 0 mm 1 mps 692 mmHg 49%
    10:00 +11°C° 0 mm 1 mps 691 mmHg 46%
    11:00 +12°C° 0 mm 1 mps 691 mmHg 43%
    12:00 +13°C° 0 mm 1 mps 691 mmHg 40%
    13:00 +13°C° 0 mm 1 mps 691 mmHg 40%
    14:00 +13°C° 0 mm 2 mps 690 mmHg 41%
    15:00 +13°C° 0 mm 2 mps 690 mmHg 42%
    16:00 +12°C° 0 mm 2 mps 690 mmHg 46%
    17:00 +10°C° 0 mm 1 mps 690 mmHg 50%
    18:00 +9°C° 0 mm 1 mps 690 mmHg 54%
    19:00 +8°C° 0 mm 2 mps 690 mmHg 53%
    20:00 +8°C° 0 mm 2 mps 689 mmHg 53%
    21:00 +7°C° 0 mm 2 mps 689 mmHg 52%
    22:00 +7°C° 0 mm 2 mps 689 mmHg 52%
    23:00 +7°C° 0 mm 2 mps 689 mmHg 51%

    Day after tomorrow, 12 December, Wednesday

    Time Temperature Precipitation Wind Pressure Humidity
    00:00 +7°C° 0 mm 2 mps 689 mmHg 51%
    01:00 +7°C° 0 mm 2 mps 689 mmHg 51%
    02:00 +7°C° 0 mm 2 mps 689 mmHg 51%
    03:00 +7°C° 0 mm 2 mps 689 mmHg 51%
    04:00 +7°C° 0 mm 2 mps 689 mmHg 51%
    05:00 +7°C° 0 mm 2 mps 690 mmHg 52%
    06:00 +7°C° 0 mm 2 mps 690 mmHg 52%
    07:00 +8°C° 0 mm 2 mps 690 mmHg 52%
    08:00 +9°C° 0 mm 2 mps 691 mmHg 51%
    09:00 +10°C° 0 mm 2 mps 691 mmHg 51%
    10:00 +12°C° 0 mm 2 mps 691 mmHg 48%
    11:00 +12°C° 0 mm 2 mps 690 mmHg 45%
    12:00 +12°C° 0 mm 3 mps 690 mmHg 42%
    13:00 +13°C° 0 mm 2 mps 689 mmHg 44%
    14:00 +12°C° 0 mm 2 mps 689 mmHg 47%
    15:00 +12°C° 0 mm 2 mps 689 mmHg 49%
    16:00 +10°C° 0 mm 2 mps 688 mmHg 54%
    17:00 +9°C° 0 mm 1 mps 688 mmHg 58%
    18:00 +8°C° 0 mm 1 mps 688 mmHg 63%
    19:00 +8°C° 0 mm 1 mps 688 mmHg 63%
    20:00 +7°C° 0 mm 2 mps 688 mmHg 63%
    21:00 +7°C° 0 mm 2 mps 688 mmHg 64%
    22:00 +6°C° 0 mm 2 mps 688 mmHg 66%
    23:00 +6°C° 0 mm 2 mps 688 mmHg 69%

    13 December, Thursday

    Time Temperature Precipitation Wind Pressure Humidity
    00:00 +6°C° 0 mm 2 mps 688 mmHg 71%
    01:00 +6°C° 0 mm 2 mps 688 mmHg 72%
    02:00 +7°C° 0 mm 1 mps 688 mmHg 73%
    03:00 +7°C° 0 mm 1 mps 688 mmHg 75%
    04:00 +7°C° 0.1 mm 1 mps 688 mmHg 75%
    05:00 +6°C° 0.1 mm 1 mps 688 mmHg 75%
    06:00 +6°C° 0.1 mm 1 mps 688 mmHg 76%
    07:00 +7°C° 0.1 mm 1 mps 688 mmHg 72%
    08:00 +8°C° 0.1 mm 1 mps 689 mmHg 68%
    09:00 +9°C° 0.1 mm 1 mps 689 mmHg 65%
    10:00 +9°C° 0 mm 2 mps 689 mmHg 59%
    11:00 +10°C° 0 mm 3 mps 689 mmHg 53%
    12:00 +11°C° 0 mm 3 mps 690 mmHg 46%
    13:00 +11°C° 0 mm 3 mps 690 mmHg 47%
    14:00 +11°C° 0 mm 4 mps 690 mmHg 47%
    15:00 +10°C° 0 mm 4 mps 691 mmHg 47%
    16:00 +9°C° 0 mm 3 mps 691 mmHg 53%
    17:00 +8°C° 0 mm 2 mps 692 mmHg 59%
    18:00 +6°C° 0 mm 2 mps 692 mmHg 65%
    19:00 +6°C° 0 mm 2 mps 693 mmHg 66%
    20:00 +6°C° 0 mm 1 mps 693 mmHg 67%
    21:00 +6°C° 0 mm 1 mps 693 mmHg 68%
    22:00 +6°C° 0 mm 1 mps 694 mmHg 69%
    23:00 +6°C° 0 mm 1 mps 694 mmHg 70%

    14 December, Friday

    Time Temperature Precipitation Wind Pressure Humidity
    00:00 +5°C° 0 mm 1 mps 694 mmHg 71%
    01:00 +5°C° 0 mm 1 mps 695 mmHg 73%
    02:00 +5°C° 0 mm 1 mps 695 mmHg 74%
    03:00 +4°C° 0 mm 1 mps 695 mmHg 75%
    04:00 +4°C° 0 mm 1 mps 696 mmHg 76%
    05:00 +4°C° 0 mm 1 mps 696 mmHg 76%
    06:00 +4°C° 0 mm 1 mps 697 mmHg 77%
    07:00 +4°C° 0 mm 1 mps 697 mmHg 73%
    08:00 +5°C° 0 mm 1 mps 697 mmHg 69%
    09:00 +6°C° 0 mm 1 mps 698 mmHg 65%
    10:00 +5°C° 0 mm 2 mps 697 mmHg 59%
    11:00 +6°C° 0 mm 2 mps 697 mmHg 54%
    12:00 +7°C° 0 mm 2 mps 696 mmHg 48%
    13:00 +7°C° 0 mm 2 mps 696 mmHg 48%
    14:00 +7°C° 0 mm 2 mps 696 mmHg 48%
    15:00 +7°C° 0 mm 2 mps 695 mmHg 48%
    16:00 +6°C° 0 mm 2 mps 695 mmHg 51%
    17:00 +5°C° 0 mm 1 mps 695 mmHg 55%
    18:00 +4°C° 0 mm 1 mps 695 mmHg 59%
    19:00 +4°C° 0 mm 1 mps 695 mmHg 59%
    20:00 +4°C° 0 mm 1 mps 695 mmHg 59%
    21:00 +4°C° 0 mm 1 mps 695 mmHg 59%
    22:00 +4°C° 0 mm 1 mps 695 mmHg 59%
    23:00 +4°C° 0 mm 1 mps 694 mmHg 59%

    15 December, Saturday

    Time Temperature Precipitation Wind Pressure Humidity
    00:00 +4°C° 0 mm 1 mps 694 mmHg 60%
    01:00 +4°C° 0 mm 1 mps 695 mmHg 60%
    02:00 +4°C° 0 mm 1 mps 695 mmHg 61%
    03:00 +2°C° 0 mm 2 mps 695 mmHg 61%
    04:00 +3°C° 0 mm 1 mps 695 mmHg 61%
    05:00 +3°C° 0 mm 1 mps 695 mmHg 62%
    06:00 +3°C° 0 mm 1 mps 696 mmHg 62%
    07:00 +4°C° 0 mm 1 mps 696 mmHg 60%
    08:00 +5°C° 0 mm 1 mps 697 mmHg 57%
    09:00 +6°C° 0 mm 1 mps 697 mmHg 55%
    10:00 +6°C° 0 mm 2 mps 697 mmHg 53%
    11:00 +6°C° 0 mm 2 mps 697 mmHg 51%
    12:00 +7°C° 0 mm 2 mps 697 mmHg 49%
    13:00 +7°C° 0 mm 2 mps 697 mmHg 51%
    14:00 +7°C° 0 mm 2 mps 697 mmHg 52%
    15:00 +7°C° 0 mm 2 mps 697 mmHg 54%
    16:00 +6°C° 0 mm 2 mps 697 mmHg 59%
    17:00 +6°C° 0 mm 1 mps 698 mmHg 64%
    18:00 +5°C° 0 mm 1 mps 698 mmHg 68%
    19:00 +4°C° 0 mm 1 mps 698 mmHg 69%
    20:00 +4°C° 0 mm 1 mps 698 mmHg 70%
    21:00 +4°C° 0 mm 1 mps 698 mmHg 70%
    22:00 +4°C° 0 mm 1 mps 698 mmHg 71%
    23:00 +4°C° 0 mm 1 mps 698 mmHg 71%
    Show more